RYR57CE LEGE-EGNM

Flight info

Callsign RYR57CE
Flight time N/A
Altitude 36000
Route GEANT DCT ROCAN DCT TOU DCT TUPAR UY120 AKIKI UN867 AVANT UM184 HEMEL T420 TNT N57 DENBY
Aircraft B738/M-SDE2E3FGHIRWXY/LB1

Departure

Time 2026-05-08 17:57
Airport Girona-Costa Brava Airport (LEGE)

Arrival

Time N/A
Airport Leeds Bradford Airport (EGNM)
Time Latitude Longitude Altitude Speed Heading
2026-05-08 17:35 41.89772 2.76448 423 ft 0 kts 106°
2026-05-08 17:46 41.89773 2.76446 423 ft 1 kts 106°
2026-05-08 17:46 41.89777 2.76426 416 ft 3 kts 102°
2026-05-08 17:46 41.89778 2.76400 420 ft 3 kts 78°
2026-05-08 17:47 41.89771 2.76377 411 ft 3 kts 47°
2026-05-08 17:47 41.89759 2.76364 418 ft 2 kts 17°
2026-05-08 17:47 41.89756 2.76363 417 ft 2 kts 15°
2026-05-08 17:50 41.89757 2.76363 418 ft 1 kts 15°
2026-05-08 17:50 41.89774 2.76369 411 ft 5 kts 14°
2026-05-08 17:50 41.89820 2.76386 421 ft 9 kts 15°
2026-05-08 17:51 41.89887 2.76360 422 ft 12 kts 295°
2026-05-08 17:51 41.89911 2.76249 415 ft 10 kts 293°
2026-05-08 17:51 41.89955 2.76234 424 ft 7 kts 14°
2026-05-08 17:51 41.90006 2.76252 418 ft 9 kts 15°
2026-05-08 17:52 41.90081 2.76282 424 ft 15 kts 16°
2026-05-08 17:52 41.90201 2.76327 424 ft 21 kts 15°
2026-05-08 17:52 41.90539 2.76455 435 ft 26 kts 16°
2026-05-08 17:53 41.90709 2.76520 448 ft 25 kts 15°
2026-05-08 17:53 41.90869 2.76580 458 ft 23 kts 16°
2026-05-08 17:53 41.91031 2.76641 459 ft 26 kts 15°
2026-05-08 17:53 41.91201 2.76706 464 ft 25 kts 15°
2026-05-08 17:54 41.91346 2.76761 466 ft 13 kts 17°
2026-05-08 17:54 41.91411 2.76760 468 ft 9 kts 334°
2026-05-08 17:54 41.91465 2.76720 471 ft 9 kts 330°
2026-05-08 17:54 41.91517 2.76680 473 ft 8 kts 326°
2026-05-08 17:55 41.91531 2.76613 474 ft 8 kts 237°
2026-05-08 17:55 41.91485 2.76583 477 ft 5 kts 195°
2026-05-08 17:55 41.91481 2.76581 477 ft 0 kts 196°
2026-05-08 17:56 41.91465 2.76575 473 ft 16 kts 196°
2026-05-08 17:56 41.91110 2.76440 470 ft 89 kts 195°
2026-05-08 17:56 41.90303 2.76133 449 ft 150 kts 195°
2026-05-08 17:57 41.89185 2.75704 892 ft 169 kts 194°
2026-05-08 17:57 41.88088 2.75295 1832 ft 163 kts 193°
2026-05-08 17:57 41.86991 2.74901 2632 ft 166 kts 194°
2026-05-08 17:57 41.85825 2.74537 3223 ft 181 kts 194°
2026-05-08 17:58 41.84566 2.74105 3868 ft 189 kts 195°
2026-05-08 17:58 41.83274 2.73652 4532 ft 194 kts 195°
2026-05-08 17:58 41.81948 2.73185 5078 ft 201 kts 196°
2026-05-08 17:58 41.81053 2.72751 5440 ft 202 kts 206°
2026-05-08 17:59 41.79874 2.71720 6064 ft 203 kts 221°
2026-05-08 17:59 41.78942 2.70286 6613 ft 207 kts 237°
2026-05-08 17:59 41.78330 2.68507 7067 ft 218 kts 252°
2026-05-08 17:59 41.78115 2.66403 7375 ft 236 kts 270°
2026-05-08 18:00 41.78431 2.64209 7976 ft 245 kts 289°
2026-05-08 18:00 41.80663 2.60726 9428 ft 258 kts 330°
2026-05-08 18:00 41.82378 2.59968 10137 ft 263 kts 351°
2026-05-08 18:01 41.84201 2.59807 10877 ft 264 kts 356°
2026-05-08 18:01 41.86049 2.59727 11522 ft 268 kts 356°
2026-05-08 18:01 41.87927 2.59642 12159 ft 272 kts 356°
2026-05-08 18:01 41.89836 2.59538 12798 ft 276 kts 355°
2026-05-08 18:02 41.91767 2.59418 13461 ft 280 kts 355°
2026-05-08 18:02 41.93723 2.59284 14086 ft 283 kts 354°
2026-05-08 18:02 41.95692 2.59043 14633 ft 287 kts 343°
2026-05-08 18:02 41.97660 2.58235 14821 ft 306 kts 336°
2026-05-08 18:03 41.99717 2.57207 14992 ft 327 kts 336°
2026-05-08 18:03 42.01918 2.56106 15163 ft 348 kts 336°
2026-05-08 18:03 42.04256 2.54940 15321 ft 367 kts 336°
2026-05-08 18:03 42.06686 2.53734 15767 ft 376 kts 336°
2026-05-08 18:04 42.09150 2.52512 16432 ft 378 kts 336°
2026-05-08 18:04 42.11618 2.51285 17187 ft 378 kts 335°
2026-05-08 18:04 42.14092 2.50052 17912 ft 379 kts 335°